| time (UTC) | temp C | wind direction | speed KPH | gust KPH | rain 1hr cm | rain 24hr cm | rain mn cm | humidity % | barometer mb |
| 20260507050100 | 12 | 258 | 3.2 | 11.3 | 0.03 | 0.41 | 0.03 | 91 | 1006.4 |
| 20260507044549 | 12 | 261 | 0.0 | 6.4 | 0.03 | 0.41 | 0.03 | 92 | 1006.4 |
| 20260507043044 | 13 | 232 | 1.6 | 9.7 | 0.03 | 0.41 | 0.03 | 91 | 1006.3 |
| 20260507041537 | 13 | 0 | 1.6 | 11.3 | 0.00 | 0.38 | 0.00 | 91 | 1006.4 |
| 20260507040045 | 13 | 0 | 1.6 | 12.9 | 0.00 | 0.38 | 0.00 | 91 | 1006.2 |
| 20260507034541 | 13 | 261 | 1.6 | 14.5 | 0.00 | 0.38 | 0.38 | 92 | 1006.5 |
| 20260507033042 | 14 | 279 | 1.6 | 12.9 | 0.00 | 0.38 | 0.38 | 94 | 1005.8 |
| 20260507031537 | 14 | 275 | 1.6 | 11.3 | 0.00 | 0.38 | 0.38 | 94 | 1005.7 |
| 20260507030038 | 15 | 281 | 1.6 | 4.8 | 0.00 | 0.38 | 0.38 | 95 | 1005.6 |
| 20260507024546 | 15 | 271 | 1.6 | 8.0 | 0.00 | 0.38 | 0.38 | 94 | 1005.2 |
| 20260507023040 | 14 | 157 | 1.6 | 14.5 | 0.00 | 0.38 | 0.38 | 95 | 1005.3 |
| 20260507021550 | 14 | 0 | 1.6 | 14.5 | 0.00 | 0.38 | 0.38 | 94 | 1005.4 |
| 20260507020040 | 14 | 0 | 0.0 | 8.0 | 0.00 | 0.38 | 0.38 | 94 | 1005.3 |
| 20260507014537 | 14 | 223 | 1.6 | 11.3 | 0.00 | 0.38 | 0.38 | 95 | 1005.3 |
| 20260507013038 | 14 | 0 | 1.6 | 8.0 | 0.00 | 0.38 | 0.38 | 95 | 1005.3 |
| 20260507011545 | 14 | 174 | 1.6 | 11.3 | 0.00 | 0.38 | 0.38 | 95 | 1005.3 |
| 20260507010045 | 14 | 198 | 1.6 | 9.7 | 0.00 | 0.38 | 0.38 | 95 | 1005.4 |
| 20260507004540 | 14 | 208 | 0.0 | 6.4 | 0.00 | 0.38 | 0.38 | 95 | 1005.5 |
| 20260507003040 | 14 | 159 | 0.0 | 11.3 | 0.03 | 0.38 | 0.38 | 95 | 1005.4 |
| 20260507001542 | 14 | 129 | 3.2 | 14.5 | 0.03 | 0.38 | 0.38 | 94 | 1005.3 |
| 20260507000042 | 14 | 0 | 1.6 | 9.7 | 0.05 | 0.38 | 0.38 | 94 | 1005.2 |
| 20260506234550 | 14 | 0 | 1.6 | 8.0 | 0.13 | 0.38 | 0.38 | 95 | 1005.1 |
| 20260506233038 | 15 | 142 | 0.0 | 9.7 | 0.10 | 0.36 | 0.36 | 94 | 1005.2 |
| 20260506231539 | 15 | 0 | 0.0 | 11.3 | 0.10 | 0.36 | 0.36 | 94 | 1005.0 |
| 20260506230037 | 15 | 175 | 1.6 | 11.3 | 0.08 | 0.33 | 0.33 | 94 | 1005.0 |
| 20260506224536 | 15 | 0 | 0.0 | 8.0 | 0.03 | 0.25 | 0.25 | 94 | 1005.3 |
| 20260506223047 | 15 | 155 | 3.2 | 9.7 | 0.03 | 0.25 | 0.25 | 93 | 1005.3 |
| 20260506221539 | 15 | 0 | 0.0 | 9.7 | 0.03 | 0.25 | 0.25 | 93 | 1005.3 |
| 20260506220038 | 15 | 184 | 0.0 | 6.4 | 0.03 | 0.25 | 0.25 | 93 | 1005.5 |
| 20260506214540 | 15 | 15 | 1.6 | 12.9 | 0.03 | 0.23 | 0.23 | 92 | 1005.5 |
| 20260506213042 | 15 | 188 | 0.0 | 9.7 | 0.03 | 0.23 | 0.23 | 92 | 1005.8 |
| 20260506211543 | 15 | 0 | 1.6 | 11.3 | 0.03 | 0.23 | 0.23 | 92 | 1005.9 |
| 20260506210041 | 15 | 226 | 1.6 | 16.1 | 0.05 | 0.23 | 0.23 | 92 | 1005.9 |
| 20260506204550 | 15 | 63 | 3.2 | 12.9 | 0.05 | 0.20 | 0.20 | 92 | 1006.1 |
| 20260506203037 | 15 | 212 | 1.6 | 24.1 | 0.05 | 0.20 | 0.20 | 92 | 1006.2 |
| 20260506201539 | 15 | 256 | 3.2 | 12.9 | 0.10 | 0.20 | 0.20 | 91 | 1006.1 |
| 20260506200057 | 15 | 102 | 3.2 | 16.1 | 0.13 | 0.18 | 0.18 | 90 | 1006.1 |
| 20260506194548 | 16 | 0 | 3.2 | 9.7 | 0.13 | 0.15 | 0.15 | 90 | 1006.2 |
| 20260506193038 | 16 | 0 | 1.6 | 12.9 | 0.15 | 0.15 | 0.15 | 88 | 1006.2 |
| 20260506191538 | 17 | 0 | 0.0 | 4.8 | 0.08 | 0.08 | 0.08 | 86 | 1006.1 |
| 20260506190039 | 17 | 140 | 0.0 | 12.9 | 0.05 | 0.05 | 0.05 | 83 | 1006.1 |
| 20260506184536 | 18 | 190 | 4.8 | 25.7 | 0.03 | 0.03 | 0.03 | 78 | 1006.4 |
| 20260506183057 | 19 | 193 | 1.6 | 12.9 | 0.00 | 0.00 | 0.00 | 76 | 1006.7 |
| 20260506181544 | 20 | 227 | 6.4 | 20.9 | 0.00 | 0.00 | 0.00 | 68 | 1006.5 |
| 20260506180041 | 21 | 273 | 4.8 | 43.5 | 0.00 | 0.00 | 0.00 | 63 | 1006.6 |
| 20260506174538 | 21 | 191 | 9.7 | 32.2 | 0.00 | 0.00 | 0.00 | 60 | 1006.5 |
| 20260506173037 | 22 | 177 | 9.7 | 29.0 | 0.00 | 0.00 | 0.00 | 58 | 1006.6 |
| 20260506171546 | 22 | 238 | 4.8 | 22.5 | 0.00 | 0.00 | 0.00 | 59 | 1006.8 |
| 20260506170046 | 23 | 184 | 3.2 | 25.7 | 0.00 | 0.00 | 0.00 | 57 | 1006.8 |
| 20260506164547 | 22 | 217 | 1.6 | 17.7 | 0.00 | 0.00 | 0.00 | 62 | 1006.9 |
| 20260506163038 | 21 | 216 | 6.4 | 19.3 | 0.00 | 0.00 | 0.00 | 61 | 1007.2 |
| 20260506161545 | 21 | 297 | 3.2 | 22.5 | 0.00 | 0.00 | 0.00 | 62 | 1007.3 |
| 20260506160044 | 21 | 313 | 3.2 | 16.1 | 0.00 | 0.00 | 0.00 | 64 | 1007.7 |
| 20260506154537 | 21 | 179 | 1.6 | 12.9 | 0.00 | 0.00 | 0.00 | 65 | 1007.9 |
| 20260506153040 | 21 | 214 | 3.2 | 17.7 | 0.00 | 0.00 | 0.00 | 65 | 1008.0 |
| 20260506151558 | 21 | 284 | 4.8 | 22.5 | 0.00 | 0.00 | 0.00 | 62 | 1008.2 |
| 20260506150039 | 21 | 248 | 1.6 | 16.1 | 0.00 | 0.00 | 0.00 | 67 | 1008.1 |
| 20260506144538 | 20 | 200 | 4.8 | 25.7 | 0.00 | 0.00 | 0.00 | 68 | 1008.5 |
| 20260506143045 | 20 | 201 | 3.2 | 16.1 | 0.00 | 0.00 | 0.00 | 68 | 1008.4 |
| 20260506141539 | 20 | 219 | 1.6 | 16.1 | 0.00 | 0.00 | 0.00 | 70 | 1008.3 |
| 20260506140040 | 20 | 298 | 4.8 | 17.7 | 0.00 | 0.00 | 0.00 | 70 | 1008.3 |
| 20260506134538 | 20 | 127 | 4.8 | 19.3 | 0.00 | 0.00 | 0.00 | 70 | 1008.5 |
| 20260506133040 | 19 | 238 | 3.2 | 24.1 | 0.00 | 0.00 | 0.00 | 72 | 1008.7 |
| 20260506131536 | 18 | 221 | 4.8 | 19.3 | 0.00 | 0.00 | 0.00 | 74 | 1009.1 |
| 20260506130049 | 18 | 239 | 4.8 | 22.5 | 0.00 | 0.00 | 0.00 | 74 | 1009.0 |
| 20260506124540 | 18 | 200 | 6.4 | 19.3 | 0.00 | 0.00 | 0.00 | 74 | 1009.1 |
| 20260506123039 | 17 | 246 | 1.6 | 16.1 | 0.00 | 0.00 | 0.00 | 78 | 1008.8 |
| 20260506121540 | 17 | 122 | 3.2 | 14.5 | 0.00 | 0.00 | 0.00 | 79 | 1009.1 |
| 20260506120041 | 16 | 0 | 4.8 | 12.9 | 0.00 | 0.00 | 0.00 | 79 | 1008.9 |
| 20260506114545 | 16 | 194 | 1.6 | 12.9 | 0.00 | 0.00 | 0.00 | 82 | 1009.2 |
| 20260506113041 | 16 | 148 | 3.2 | 12.9 | 0.00 | 0.00 | 0.00 | 81 | 1009.4 |
| 20260506111541 | 15 | 199 | 1.6 | 6.4 | 0.00 | 0.00 | 0.00 | 82 | 1009.6 |
| 20260506110046 | 15 | 195 | 1.6 | 16.1 | 0.00 | 0.00 | 0.00 | 83 | 1009.4 |
| 20260506104536 | 15 | 0 | 1.6 | 8.0 | 0.00 | 0.00 | 0.00 | 85 | 1009.4 |
| 20260506103036 | 14 | 188 | 0.0 | 4.8 | 0.00 | 0.00 | 0.00 | 85 | 1009.3 |
| 20260506101549 | 14 | 0 | 0.0 | 8.0 | 0.00 | 0.00 | 0.00 | 85 | 1009.4 |
| 20260506100039 | 14 | 0 | 0.0 | 3.2 | 0.00 | 0.00 | 0.00 | 84 | 1009.4 |
| 20260506094547 | 14 | 199 | 1.6 | 11.3 | 0.00 | 0.00 | 0.00 | 84 | 1009.3 |
| 20260506093037 | 14 | 0 | 0.0 | 4.8 | 0.00 | 0.00 | 0.00 | 83 | 1009.0 |
| 20260506091536 | 14 | 0 | 0.0 | 6.4 | 0.00 | 0.00 | 0.00 | 82 | 1009.3 |
| 20260506090044 | 15 | 0 | 0.0 | 6.4 | 0.00 | 0.00 | 0.00 | 82 | 1009.2 |
| 20260506084537 | 15 | 138 | 0.0 | 4.8 | 0.00 | 0.00 | 0.00 | 81 | 1009.4 |
| 20260506083041 | 15 | 215 | 1.6 | 12.9 | 0.00 | 0.00 | 0.00 | 80 | 1009.4 |
| 20260506081541 | 15 | 197 | 0.0 | 4.8 | 0.00 | 0.00 | 0.00 | 79 | 1009.4 |
| 20260506073046 | 16 | 201 | 0.0 | 9.7 | 0.00 | 0.00 | 0.00 | 76 | 1009.1 |
| 20260506071557 | 16 | 159 | 1.6 | 12.9 | 0.00 | 0.00 | 0.00 | 75 | 1009.0 |
| 20260506061536 | 17 | 179 | 3.2 | 12.9 | 0.00 | 0.00 | 0.00 | 72 | 1008.8 |